Location: Proctor
(47.8934°N, 114.3048°W)
Time: 16:26:30
(UTC+00:00)

POLYITAN 1 - Pass Details

Date: 30 June 2022
Orbit: 586 x 605 km, 98.0° (Epoch: 17 August)

Event Time Altitude Azimuth Distance (km) Brightness Sun altitude
Rises 10:45:52 0° 360° (N) 2,859 ? -7.7°
Reaches altitude 10° 10:48:33 10° 342° (NNW) 1,954 ? -7.4°
Maximum altitude 10:51:30 19° 298° (WNW) 1,465 ? -7.1°
Drops below altitude 10° 10:54:27 10° 254° (WSW) 1,951 ? -6.8°
Enters shadow 10:55:24 - 246° (WSW) 2,240 ? -6.7°
